Regional Weather Roundup
Issued by NWS

Home | Current Version | Previous Version | Text Only | Print | Product List | Glossary On
Versions: 1 2 3 4 5 6 7 8 9 10 11 12 13 14 15 16 17 18 19 20 21 22 23 24 25 26 27 28
000
ASUS44 KJAN 241310
RWRMS

MISSISSIPPI HOURLY WEATHER ROUNDUP
NATIONAL WEATHER SERVICE JACKSON MS
800 AM CDT SUN SEP 24 2017

NOTE: "FAIR: INDICATES FEW OR NO CLOUDS BELOW 12,000 FEET WITH NO
SIGNIFICANT WEATHER AND/OR OBSTRUCTIONS TO VISIBILITY.

MSZ001>002-007>008-010>013-018>021-025>028-034>036-241400-
NORTHWEST MISSISSIPPI

CITY           SKY/WX    TMP DP  RH WIND       PRES   REMARKS
BATESVILLE     FAIR      68  66  95 CALM      30.03R FOG
CLARKSDALE       N/A     72  72 100 CALM      30.01S
CLEVELAND      FAIR      73  73 100 CALM      30.00R
GREENWOOD      SUNNY     73  68  84 CALM      30.00R
GREENVILLE     SUNNY     70  67  90 SE3       29.99R
OLIVE BRANCH   SUNNY    N/A N/A N/A CALM      30.02R
TUNICA           N/A     70  70 100 CALM      30.02S FOG
WINONA         FAIR      67  67 100 CALM      30.01S
$$

MSZ003>006-009-014>017-022>024-029>033-037>039-241400-
NORTHEAST MISSISSIPPI

CITY           SKY/WX    TMP DP  RH WIND       PRES   REMARKS
COLUMBUS AFB   SUNNY     70  70 100 CALM      30.02R
GOLDN TRIANGLE SUNNY     72  68  88 E5        30.03R FOG
STARKVILLE     FAIR      68  68 100 CALM      30.04S
TUPELO         MOSUNNY   72  67  84 CALM      30.04R
$$

MSZ040-058-241400-
CENTRAL MISSISSIPPI

CITY           SKY/WX    TMP DP  RH WIND       PRES   REMARKS
JACKSON INTL   SUNNY     71  69  93 CALM      29.99S
JACKSON HAWKNS SUNNY     71  70  96 CALM      30.00R
MADISON        FAIR      68  66  94 CALM      30.00S
MERIDIAN KEY   SUNNY     71  69  93 N3        30.01S
MERIDIAN NAS   SUNNY     69  66  90 E3        30.02S
RAYMOND        FAIR      68  68 100 CALM      29.99S FOG
VICKSBURG VKS  SUNNY     70  70 100 CALM      29.99S
$$

MSZ059>079-241400-
SOUTH MISSISSIPPI

CITY           SKY/WX    TMP DP  RH WIND       PRES   REMARKS
COLUMBIA       FAIR      68 N/A N/A CALM      30.02R
HATTIESBURG    SUNNY     70  69  97 CALM      29.99R
LAUREL         FAIR      68  68 100 CALM      29.99S
MCCOMB         SUNNY     71  64  78 NE3       29.97S
NATCHEZ        SUNNY     69  67  93 CALM      29.98R
PINE BELT      MOSUNNY   70  66  88 N6        29.99S
$$

MSZ080>082-241400-
COASTAL MISSISSIPPI

CITY           SKY/WX    TMP DP  RH WIND       PRES   REMARKS
BAY ST LOUIS   SUNNY     70  66  88 CALM      29.96R
BILOXI         MOSUNNY   72  68  89 NE9       29.94S
PASCAGOULA     SUNNY     72  68  87 N5        29.94F
GULFPORT       PTSUNNY   73  69  87 N5        29.94R
$$

LAZ007>009-015>016-023>026-241400-
NORTHEAST LOUISIANA

CITY           SKY/WX    TMP DP  RH WIND       PRES   REMARKS
BASTROP        FAIR      71  70  98 CALM      29.98S
TALLULAH/VBURG SUNNY     72  69  90 CALM      29.98S
VIDALIA          N/A    N/A N/A N/A MISG      29.96R
$$




USA.gov is the U.S. government's official web portal to all federal, state and local government web resources and services.